TimeEDT,TemperatureF,Dew PointF,Humidity,Sea Level PressureIn,VisibilityMPH,Wind Direction,Wind SpeedMPH,Gust SpeedMPH,PrecipitationIn,Events,Conditions,WindDirDegrees,DateUTC
12:53 AM,48.0,46.0,93,30.14,10.0,NNE,13.8,-,0.02,Rain,Light Rain,20,2014-04-19 04:53:00
1:53 AM,48.0,46.0,93,30.12,9.0,NNE,16.1,21.9,0.04,Rain,Light Rain,30,2014-04-19 05:53:00
2:08 AM,48.0,46.0,93,30.12,10.0,NNE,12.7,-,0.00,Rain,Light Rain,20,2014-04-19 06:08:00
2:53 AM,48.0,46.0,93,30.09,9.0,NNE,11.5,-,0.03,Rain,Light Rain,20,2014-04-19 06:53:00
3:53 AM,48.0,46.0,93,30.09,10.0,NNE,11.5,-,0.01,,Overcast,20,2014-04-19 07:53:00
4:08 AM,48.0,46.9,96,30.08,8.0,NNE,12.7,-,0.00,Rain,Light Rain,30,2014-04-19 08:08:00
4:53 AM,48.2,46.4,93,30.07,10.0,NNE,13.8,-,N/A,,Overcast,30,2014-04-19 08:53:00
5:44 AM,48.9,46.9,93,30.08,6.0,NNE,9.2,-,N/A,,Overcast,30,2014-04-19 09:44:00
5:53 AM,48.9,46.9,93,30.08,5.0,NNE,9.2,-,N/A,,Overcast,30,2014-04-19 09:53:00
6:19 AM,48.9,46.9,93,30.09,5.0,NNE,10.4,-,N/A,,Overcast,30,2014-04-19 10:19:00
6:53 AM,48.9,46.9,93,30.10,6.0,NNE,13.8,-,0.01,,Overcast,30,2014-04-19 10:53:00
7:17 AM,48.9,46.9,93,30.11,5.0,NNE,12.7,-,0.00,Rain,Light Rain,30,2014-04-19 11:17:00
7:43 AM,48.9,46.9,93,30.12,2.5,NNE,11.5,-,0.01,Rain,Light Rain,30,2014-04-19 11:43:00
7:53 AM,48.9,46.9,93,30.12,2.5,NNE,13.8,-,0.02,Rain,Light Rain,20,2014-04-19 11:53:00
8:53 AM,48.9,48.0,97,30.13,2.5,NNE,12.7,-,0.03,Rain,Light Rain,20,2014-04-19 12:53:00
9:53 AM,50.0,48.0,93,30.13,2.5,North,13.8,21.9,0.04,Rain,Light Rain,10,2014-04-19 13:53:00
10:53 AM,51.1,48.9,92,30.13,6.0,North,16.1,23.0,0.00,,Overcast,10,2014-04-19 14:53:00
11:53 AM,51.1,48.9,92,30.13,3.0,NNE,17.3,24.2,0.01,Rain,Light Rain,20,2014-04-19 15:53:00
12:53 PM,52.0,50.0,93,30.14,3.0,NNE,13.8,24.2,0.01,Rain,Light Rain,20,2014-04-19 16:53:00
1:53 PM,54.0,51.1,90,30.12,4.0,NNE,17.3,25.3,0.02,Rain,Light Rain,20,2014-04-19 17:53:00
2:30 PM,54.0,52.0,93,30.13,2.5,NNE,15.0,23.0,0.01,Rain,Light Rain,20,2014-04-19 18:30:00
2:53 PM,54.0,52.0,93,30.14,2.5,NNE,20.7,27.6,0.03,Rain,Light Rain,20,2014-04-19 18:53:00
3:53 PM,54.0,52.0,93,30.13,2.5,NNE,19.6,-,0.04,Rain,Light Rain,20,2014-04-19 19:53:00
4:53 PM,53.1,51.1,93,30.14,2.5,NNE,19.6,32.2,0.11,Rain,Rain,20,2014-04-19 20:53:00
5:00 PM,53.1,50.0,89,30.15,2.0,NNE,13.8,28.8,0.01,Rain,Light Rain,20,2014-04-19 21:00:00
5:12 PM,53.1,51.1,93,30.15,4.0,NE,17.3,28.8,0.04,Rain,Light Rain,40,2014-04-19 21:12:00
5:42 PM,53.1,51.1,93,30.15,10.0,NE,13.8,20.7,0.05,Rain,Light Rain,40,2014-04-19 21:42:00
5:53 PM,53.1,50.0,89,30.15,10.0,NNE,16.1,25.3,0.05,Rain,Light Rain,20,2014-04-19 21:53:00
6:53 PM,51.1,48.9,92,30.17,10.0,NNE,9.2,-,0.06,Rain,Light Rain,20,2014-04-19 22:53:00
7:53 PM,51.1,46.9,86,30.17,8.0,NNE,15.0,-,0.04,Rain,Light Rain,30,2014-04-19 23:53:00
8:53 PM,50.0,46.9,89,30.19,10.0,NNE,10.4,-,0.02,,Overcast,30,2014-04-20 00:53:00
9:53 PM,52.0,46.9,83,30.20,10.0,NNE,11.5,-,N/A,,Overcast,30,2014-04-20 01:53:00
10:53 PM,52.0,46.9,83,30.19,10.0,NNE,10.4,-,N/A,,Overcast,30,2014-04-20 02:53:00
11:53 PM,52.0,46.9,83,30.19,10.0,NNE,9.2,-,N/A,,Overcast,30,2014-04-20 03:53:00